www.pogodaiklimat.ru

Погода и климат >> Архив погоды >> Норвегия >> Согндал аэропорт


ПОГОДА в Согндал аэропорту

  • Прогноз погоды в Согндал аэропорту
  • Монитор погоды в Согндал аэропорту

АРХИВ ПОГОДЫ в Согндал аэропорту

Время (UTC), дата Ветер
(напр.,м/с)
 
Видим.   Явления Облачность Т
(С)
Тd
(С)
f
(%)
Тe
(С)
Тes
(С)
Комфортность P
(гПа)
Po
(гПа)
Тmin
(С)
Tmax
(С)
R
(мм)
R24
(мм)
S
(см)
22 8.06 В 3
{4}
н/о н/о +9.0 +9.0 100 +6 +6 1008.8 950.3
23 8.06 СВ 2
{3}
н/о н/о +9.0 +9.0 100 +7 +7 1008.6 950.1
00 9.06 СВ 3
{7}
н/о н/о +8.9 +8.6 98 +6 +6 1008.2 949.7
01 9.06 В 2
{6}
н/о н/о +9.1 +9.1 100 +7 +7 1007.8 949.4
02 9.06 СВ 2
{3}
н/о н/о +8.9 +8.9 100 +7 +7 1007.7 949.3
03 9.06 В 2
{2}
н/о н/о +8.6 +8.6 100 +7 +7 1007.4 948.9
04 9.06 В 2
{3}
н/о н/о +8.9 +8.9 100 +7 +7 1007.2 948.8
05 9.06 В 2
{3}
н/о н/о +9.7 +9.1 96 +8 +8 1007.1 948.8
06 9.06 В 2
{6}
н/о н/о +10.1 +9.3 95 +8 +8 1007.1 948.9 +8.3 +11.7
07 9.06 В 2
{2}
н/о н/о +10.7 +8.3 85 +9 +9 1007.2 949.2
08 9.06 Ю 1
{2}
н/о н/о +11.7 +8.0 78 +12 +12 1007.4 949.5
09 9.06 СВ 2
{3}
н/о н/о +13.5 +7.5 67 +13 +13 1007.2 949.7
10 9.06 ЮЗ 3
{5}
н/о н/о +13.2 +7.4 68 +12 +12 1007.8 950.2
11 9.06 З 5
{7}
н/о н/о +12.9 +6.5 65 +11 +11 1008.1 950.4
12 9.06 З 5
{7}
н/о н/о +11.7 +7.4 75 +9 +9 1008.7 950.7
13 9.06 ЮЗ 4
{7}
н/о н/о +11.8 +6.9 72 +10 +10 1009.1 951.2
14 9.06 З 5
{7}
н/о н/о +11.0 +7.9 81 +8 +8 1010.1 952.0
15 9.06 З 5
{7}
н/о н/о +11.8 +8.1 78 +9 +9 1010.3 952.3
16 9.06 З 6
{8}
н/о н/о +10.9 +8.5 85 +8 +8 1011.0 952.7
17 9.06 З 5
{8}
н/о н/о +10.1 +10.1 100 +7 +7 1011.6 953.2
18 9.06 З 6
{8}
н/о н/о +10.0 +9.4 96 +6 +6 1012.2 953.8 +9.9 +13.7
19 9.06 ЮЗ 5
{8}
н/о н/о +9.4 +8.6 95 +6 +6 1012.8 954.2
20 9.06 З 7
{10}
н/о н/о +9.8 +7.4 85 +6 +6 1013.0 954.5
21 9.06 З 6
{10}
н/о н/о +9.6 +6.5 81 +6 +6 1013.6 955.0
22 9.06 З 6
{11}
н/о н/о +9.6 +6.2 79 +6 +6 1014.0 955.3
23 9.06 З 5
{8}
н/о н/о +9.6 +6.2 79 +6 +6 1014.4 955.7
00 10.06 З 7
{11}
н/о н/о +7.7 +7.3 97 +3 +3 1015.6 956.5
01 10.06 З 6
{12}
н/о н/о +7.4 +5.7 89 +3 +3 1016.3 957.1
02 10.06 З 8
{11}
н/о н/о +6.8 +4.6 86 +2 +2 1017.2 957.8
03 10.06 З 5
{10}
н/о н/о +6.8 +3.4 79 +3 +3 1017.4 958.0
04 10.06 З 4
{6}
н/о н/о +6.8 +4.0 82 +3 +3 1017.8 958.3
05 10.06 ЮЗ 3
{5}
н/о н/о +7.0 +4.0 81 +4 +4 1017.9 958.5
06 10.06 З 2
{12}
н/о н/о +8.0 +4.2 77 +6 +6 1018.0 958.8 +6.6 +10.0
07 10.06 В 2
{4}
н/о н/о +7.9 +4.9 81 +6 +6 1018.5 959.2
08 10.06 ЮЗ 3
{5}
н/о н/о +8.6 +5.4 80 +6 +6 1018.6 959.5
09 10.06 ЮЗ 4
{7}
н/о н/о +8.8 +5.7 81 +6 +6 1019.0 959.9
10 10.06 З 6
{8}
н/о н/о +8.5 +6.0 84 +5 +5 1019.8 960.5
11 10.06 З 4
{8}
н/о н/о +10.4 +5.0 69 +8 +8 1019.5 960.7
12 10.06 ЮЗ 5
{8}
н/о н/о +11.1 +3.4 59 +9 +9 1019.4 960.7
13 10.06 ЮЗ 3
{7}
н/о н/о +11.3 +3.4 58 +10 +10 1019.4 960.8
14 10.06 З 4
{6}
н/о н/о +11.1 +4.1 62 +9 +9 1019.6 960.9
15 10.06 ЮЗ 4
{6}
н/о н/о +11.0 +3.8 61 +9 +9 1019.6 960.9
16 10.06 З 4
{6}
н/о н/о +11.3 +4.3 62 +9 +9 1019.7 961.1
17 10.06 З 4
{6}
н/о н/о +10.6 +5.0 68 +8 +8 1020.3 961.5
18 10.06 ЮЗ 3
{7}
н/о н/о +10.2 +4.8 69 +8 +8 1020.6 961.7 +7.8 +12.5
19 10.06 ЮЗ 1
{4}
н/о н/о +9.9 +5.1 72 +10 +10 1020.9 961.9
20 10.06 штиль 0
{2}
н/о н/о +7.0 +5.2 88 +6 +6 1021.6 962.0
21 10.06 штиль 0
{1}
н/о н/о +5.4 +5.4 100 +4 +4 1022.4 962.4
22 10.06 штиль 0
{1}
н/о н/о +5.0 +5.0 100 +4 +4 1022.8 962.7
23 10.06 штиль 0
{1}
н/о н/о +4.0 +4.0 100 +3 +3 1023.2 962.9
00 11.06 штиль 0
{4}
н/о н/о +3.6 +3.6 100 +2 +2 1023.3 962.9
01 11.06 В 1
{2}
н/о н/о +3.8 +3.8 100 +2 +2 1023.1 962.8
02 11.06 В 2
{2}
н/о н/о +5.0 +5.0 100 +2 +2 1022.8 962.6
03 11.06 В 2
{2}
н/о н/о +5.2 +5.2 100 +2 +2 1023.0 962.9
04 11.06 В 3
{4}
н/о н/о +6.9 +6.2 95 +4 +4 1023.1 963.4
05 11.06 В 3
{5}
н/о н/о +8.1 +5.6 84 +5 +5 1023.2 963.7
06 11.06 В 3
{5}
н/о н/о +9.4 +5.2 75 +7 +7 1023.0 963.8 +3.3 +10.3
07 11.06 В 3
{5}
н/о н/о +10.5 +5.5 71 +9 +9 1022.8 963.8
08 11.06 В 3
{4}
н/о н/о +12.0 +5.2 63 +11 +11 1022.6 963.9
09 11.06 В 3
{4}
н/о н/о +13.4 +5.8 60 +12 +12 1022.2 963.8
10 11.06 В 2
{4}
н/о н/о +14.9 +6.7 58 +15 +15 1021.8 963.7
11 11.06 В 3
{4}
н/о н/о +16.4 +5.7 49 +16 +16 1021.2 963.5
12 11.06 В 3
{6}
н/о н/о +18.0 +4.9 42 +18 +18 1020.4 963.0
13 11.06 В 4
{6}
н/о н/о +19.0 +5.5 41 +19 +19 1020.3 963.1
14 11.06 СВ 4
{6}
н/о н/о +19.6 +3.8 35 +20 +20 1019.7 962.7
15 11.06 СВ 3
{6}
н/о н/о +19.6 +3.8 35 +20 +20 1019.8 962.8
16 11.06 СВ 4
{6}
н/о н/о +19.7 +3.0 33 +20 +20 1019.7 962.7
17 11.06 СВ 3
{6}
н/о н/о +18.8 +4.6 39 +19 +19 1019.9 962.7
18 11.06 СВ 3
{6}
н/о н/о +19.4 +4.4 37 +20 +20 1019.7 962.7 +9.4 +20.4
19 11.06 СВ 3
{5}
н/о н/о +18.0 +4.2 40 +18 +18 1020.4 963.0
20 11.06 В 2
{4}
н/о н/о +16.8 +4.8 45 +17 +17 1020.8 963.2
21 11.06
{5}
н/о н/о +16.0 +5.0 48 1021.5 963.6
22 11.06 ЮЗ 2
{5}
н/о н/о +13.9 +5.8 58 +14 +14 1022.0 963.7
23 11.06 СВ 3
{7}
н/о н/о +15.6 +4.4 47 +15 +15 1021.7 963.7
00 12.06 СВ 3
{8}
н/о н/о +15.6 +4.7 48 +15 +15 1021.8 963.8
01 12.06 СВ 3
{8}
н/о н/о +15.2 +4.9 50 +15 +15 1021.7 963.7
02 12.06 СВ 4
{8}
н/о н/о +14.0 +6.4 60 +13 +13 1021.9 963.7
03 12.06 СВ 5
{9}
н/о н/о +12.9 +5.1 59 +11 +11 1022.5 964.0
04 12.06 СВ 4
{9}
н/о н/о +12.3 +5.0 61 +11 +11 1023.4 964.8
05 12.06 СВ 6
{10}
н/о н/о +12.5 +4.2 57 +10 +10 1022.9 964.3
06 12.06 СВ 5
{10}
н/о н/о +12.3 +4.1 57 +10 +10 1022.6 964.0 +12.2 +19.4
07 12.06 СВ 5
{9}
н/о н/о +12.2 +4.7 60 +10 +10 1022.4 963.7
08 12.06 СВ 3
{8}
н/о н/о +11.9 +4.9 62 +10 +10 1022.5 963.8
09 12.06 С 3
{7}
н/о н/о +10.4 +6.7 78 +8 +8 1022.8 963.8
10 12.06 С 3
{5}
н/о н/о +10.1 +7.2 82 +8 +8 1022.7 963.7
11 12.06 СВ 4
{6}
н/о н/о +10.6 +6.6 76 +8 +8 1021.7 962.8
12 12.06 СВ 5
{9}
н/о н/о +11.4 +5.5 67 +9 +9 1021.0 962.3
13 12.06 СВ 5
{7}
н/о н/о +11.6 +5.5 66 +9 +9 1020.2 961.6
14 12.06 СВ 6
{9}
н/о н/о +12.0 +4.7 61 +9 +9 1019.5 961.0
15 12.06 СВ 4
{8}
н/о н/о +11.7 +4.7 62 +10 +10 1019.3 960.7
16 12.06 СВ 5
{8}
н/о н/о +11.7 +4.5 61 +9 +9 1018.4 959.9
17 12.06 СВ 5
{9}
н/о н/о +12.0 +5.0 62 +10 +10 1017.7 959.3
18 12.06 СВ 5
{9}
н/о н/о +11.7 +4.7 62 +9 +9 1017.2 958.8 +10.0 +12.4
19 12.06 СВ 6
{8}
н/о н/о +11.3 +4.3 62 +9 +9 1016.7 958.2
20 12.06 СВ 6
{9}
н/о н/о +10.6 +4.1 64 +8 +8 1016.3 957.7
21 12.06 СВ 6
{9}
н/о н/о +10.1 +4.5 68 +7 +7 1016.2 957.5
22 12.06 СВ 6
{9}
н/о н/о +9.6 +5.2 74 +6 +6 1015.4 956.7
23 12.06 СВ 5
{10}
н/о н/о +9.3 +5.5 77 +6 +6 1014.8 956.1
00 13.06 СВ 5
{10}
н/о н/о +9.6 +4.8 72 +7 +7 1014.1 955.4
01 13.06 СВ 5
{9}
н/о н/о +9.4 +4.6 72 +6 +6 1013.2 954.5
02 13.06 СВ 6
{8}
н/о н/о +9.4 +4.2 70 +6 +6 1011.8 953.2
03 13.06 СВ 5
{8}
н/о н/о +9.3 +4.7 73 +6 +6 1010.6 952.1
04 13.06 СВ 6
{8}
н/о н/о +8.4 +5.9 84 +4 +4 1009.1 950.5
05 13.06 С 5
{9}
н/о н/о +7.8 +6.9 94 +4 +4 1008.8 950.0
06 13.06 СВ 6
{9}
н/о н/о +8.8 +6.1 83 +5 +5 1007.8 949.3 +7.4 +11.7
07 13.06 СВ 5
{9}
н/о н/о +8.7 +6.5 86 +5 +5 1008.4 949.9
08 13.06 СВ 3
{7}
н/о н/о +9.8 +7.1 83 +8 +8 1008.3 950.0
09 13.06 СВ 4
{7}
н/о н/о +10.4 +7.1 80 +8 +8 1007.9 949.8
10 13.06 В 4
{8}
н/о н/о +12.9 +6.3 64 +11 +11 1007.4 949.8
11 13.06 В 4
{6}
н/о н/о +13.4 +6.7 64 +12 +12 1007.4 949.9
12 13.06 В 3
{9}
н/о н/о +13.6 +7.8 68 +13 +13 1007.7 950.2
13 13.06 СВ 4
{6}
н/о н/о +13.6 +7.4 66 +12 +12 1008.1 950.6
14 13.06 СВ 5
{8}
н/о н/о +14.1 +7.4 64 +12 +12 1008.5 951.0
15 13.06 СВ 4
{7}
н/о н/о +14.5 +7.8 64 +13 +13 1009.1 951.7
16 13.06 СВ 4
{7}
н/о н/о +14.5 +7.8 64 +13 +13 1009.3 951.9
17 13.06 С 4
{7}
н/о н/о +13.9 +7.7 66 +13 +13 1009.9 952.3
18 13.06 СВ 4
{8}
н/о н/о +14.6 +7.7 63 +13 +13 1010.5 953.0 +8.3 +15.6
19 13.06 В 2
{6}
н/о н/о +14.1 +7.2 63 +14 +14 1011.1 953.5
20 13.06 С 1
{4}
н/о н/о +13.7 +7.0 64 +14 +14 1011.9 954.2
21 13.06 ЮВ 2
{6}
н/о н/о +13.1 +6.2 63 +13 +13 1013.1 955.2
22 13.06 СВ 2
{4}
н/о н/о +11.7 +5.8 67 +11 +11 1013.9 955.7
23 13.06 В 2
{6}
н/о н/о +11.2 +6.0 70 +10 +10 1014.5 956.1
00 14.06 С 3
{6}
н/о н/о +13.3 +4.0 53 +12 +12 1014.3 956.4
01 14.06 штиль 0
{5}
н/о н/о +9.6 +4.8 72 +9 +9 1015.3 956.6
02 14.06 СВ 2
{5}
н/о н/о +10.8 +4.9 67 +10 +10 1015.4 956.9
03 14.06 В 2
{6}
н/о н/о +10.6 +5.6 71 +9 +9 1015.8 957.2
04 14.06 СВ 3
{6}
н/о н/о +12.4 +5.3 62 +11 +11 1015.8 957.6
05 14.06 С 3
{4}
н/о н/о +13.4 +5.1 57 +12 +12 1015.6 957.6
06 14.06 СВ 2
{6}
н/о н/о +14.3 +5.1 54 +14 +14 1015.7 957.9 +9.4 +15.0
07 14.06 СВ 3
{7}
н/о н/о +14.3 +4.6 52 +14 +14 1016.3 958.4
08 14.06 СВ 3
{6}
н/о н/о +14.8 +5.1 52 +14 +14 1016.5 958.7
09 14.06 СВ 5
{7}
н/о н/о +15.6 +4.1 46 +15 +15 1015.7 958.1
10 14.06 СВ 2
{7}
н/о н/о +15.2 +4.6 49 +15 +15 1016.6 958.8
11 14.06 В 1
{4}
н/о н/о +15.9 +5.8 51 +17 +17 1016.3 958.8
12 14.06 СВ 1
{7}
н/о н/о +16.5 +5.8 49 +17 +17 1016.4 959.0
13 14.06 СВ 4
{6}
н/о н/о +17.4 +5.4 45 +17 +17 1016.3 959.0
14 14.06 СВ 3
{6}
н/о н/о +17.9 +6.1 46 +18 +18 1015.5 958.3
15 14.06 З 1
{5}
н/о н/о +17.1 +6.3 49 +18 +18 1015.6 958.3
16 14.06 ЮЗ 1
{4}
н/о н/о +17.8 +6.7 48 +19 +19 1015.4 958.3
17 14.06 СВ 3
{5}
н/о н/о +17.4 +6.0 47 +17 +17 1015.5 958.3
18 14.06 СВ 2
{6}
н/о н/о +16.8 +6.3 50 +17 +17 1015.8 958.4 +14.0 +18.5
19 14.06 СВ 3
{4}
н/о н/о +16.3 +6.2 51 +16 +16 1016.1 958.6
20 14.06 З 4
{6}
н/о н/о +15.4 +6.9 57 +15 +15 1016.7 959.0
21 14.06 З 4
{6}
н/о н/о +14.9 +7.0 59 +14 +14 1017.4 959.5
22 14.06 З 3
{5}
н/о н/о +13.3 +9.2 76 +12 +12 1018.1 959.9
23 14.06 З 1
{2}
н/о н/о +10.5 +9.6 94 +10 +10 1018.8 960.1
00 15.06 Ю 1
{6}
н/о н/о +8.6 +8.6 100 +8 +8 1019.6 960.4
01 15.06 ЮЗ 2
{3}
н/о н/о +11.3 +7.6 78 +10 +10 1019.1 960.5
02 15.06 штиль 0
{3}
н/о н/о +8.9 +7.5 91 +8 +8 1019.7 960.5
03 15.06 штиль 0
{1}
н/о н/о +8.6 +8.6 100 +8 +8 1019.8 960.6
04 15.06 штиль 0
{2}
н/о н/о +9.7 +9.7 100 +9 +9 1019.7 960.7
05 15.06 В 1
{2}
н/о н/о +14.0 +8.8 71 +14 +14 1018.8 960.7
06 15.06 В 2
{3}
н/о н/о +14.4 +7.7 64 +14 +14 1018.5 960.5 +8.5 +16.8
07 15.06 В 2
{3}
н/о н/о +15.1 +7.4 60 +15 +15 1018.5 960.6
08 15.06 В 2
{4}
н/о н/о +16.5 +7.5 55 +17 +17 1018.3 960.7
09 15.06 В 3
{5}
н/о н/о +17.5 +6.1 47 +18 +18 1017.6 960.2
10 15.06 В 2
{4}
н/о н/о +18.4 +6.3 45 +19 +19 1017.1 959.9
11 15.06 В 3
{4}
н/о н/о +19.2 +6.7 44 +20 +20 1016.3 959.4
12 15.06 В 2
{5}
н/о н/о +20.1 +4.6 36 +21 +21 комфорт 1015.8 959.0
13 15.06 СВ 2
{4}
н/о н/о +21.2 +3.4 31 +21 +21 комфорт 1014.8 958.3
14 15.06 В 2
{4}
н/о н/о +22.1 +3.8 30 +22 +22 комфорт 1014.0 957.7
15 15.06
{4}
н/о н/о +22.9 +4.9 31 1013.3 957.2
16 15.06 СВ 2
{4}
н/о н/о +23.6 +5.0 30 +23 +23 комфорт 1012.7 956.8
17 15.06 В 3
{6}
н/о н/о +23.1 +4.6 30 +23 +23 комфорт 1012.2 956.2
18 15.06 С 2
{6}
н/о н/о +22.4 +4.9 32 +23 +23 комфорт 1011.8 955.7 +14.4 +23.9
19 15.06 СВ 1
{2}
н/о н/о +18.0 +6.5 47 +19 +19 1012.4 955.5
20 15.06 штиль 0
{1}
н/о н/о +15.8 +5.4 50 +16 +16 1013.0 955.6
21 15.06 СВ 2
{6}
н/о н/о +16.3 +5.6 49 +17 +17 1013.2 955.9
22 15.06 Ю 1
{4}
н/о н/о +15.6 +6.6 55 +16 +16 1013.3 955.9

 

Местоположение метеостанции Согндал аэропорт (Норвегия): широта 61.15 долгота 7.13 высота над уровнем моря 49 м.

В архиве по умолчанию представлена погода в Согндал аэропорту за последнюю неделю. Архивные данные за месяц целиком и за предыдущие месяцы, начиная с января 2011 года, Вы можете получить, выбрав интересующий диапазон дат из раскрывающегося списка и нажав кнопку "Ввод!".


*Определитесь, кто Вы:
робот инопланетянин человек

Внимание! Время в таблицах - всемирное. Для получения местного времени необходимо прибавить поправку, которая равна 1 ч.

Смотрите также архив погоды в соседних городах и на ближайших метеорологических станциях:

Погода в Лардале (Норвегия) (21 км)
Погода в Вангснесе (Норвегия) (26 км)
Погода во Фьерлэнде (Норвегия) (36 км)
Погода в Клеваватнете (Норвегия) (48 км)
Погода в Мьолфелле (Норвегия) (51 км)
Погода в Филефеле (Норвегия) (53 км)
Погода в Мидтстове (Норвегия) (55 км)
Погода на Финсеватнете (Норвегия) (65 км)
Погода в Сонгфельсхутте (Норвегия) (66 км)
Погода в Воссевангене (Норвегия) (69 км)

Пояснения к столбцам:

Ветер - указаны скорость ветра в м/с - средняя за 10 мин, порывы в срок и между сроками (в фигурных скобках) и направление, откуда дует ветер: С - северный, СВ - северо-восточный, В - восточный, ЮВ - юго-восточный, Ю - южный, ЮЗ - юго-западный, З - западный, СЗ - северо-западный.
Видимость - горизонтальная дальность видимости в метрах или километрах. При видимости от 1 до 10 км при отсутствии осадков обычно наблюдается дымка, при ухудшении видимости до 1 км и менее - туман. В сухую погоду видимость может ухудшаться дымом, пылью или мглою.
Явления - указаны атмосферные явления, наблюдавшиеся в срок или в последний час перед сроком; фигурными скобками обозначены явления, наблюдавшиеся между сроками (за 1-3 часа до срока); квадратными скобками обозначены град или гололедные отложения с указанием их диаметра в мм.
Облачность - указаны через наклонную черту общая и нижняя облачность в баллах и высота нижней границы облаков в метрах; квадратными скобками обозначены формы облаков: Ci - перистые, Cs - перисто-слоистые, Cc - перисто-кучевые, Ac - высококучевые, As - высокослоистые, Sc - слоисто-кучевые, Ns - слоисто-дождевые, Cu - кучевые, Cb - кучево-дождевые. Подробнее классификацию облаков см. в Атласе облаков (PDF).
T - Температура воздуха - температура, измеренная на высоте 2 м над землей.
Td - Температура точки росы - температура, при понижении до которой содержащийся в воздухе водяной пар достигнет насыщения.
f - Относительная влажность воздуха - влажноcть воздуха, измеренная на высоте 2 м над землей.
Te - Эффективная температура - температура, которую ощущает одетый по сезону человек в тени. Характеристика душности погоды. При расчете учитывается влияние влажности воздуха и скорости ветра на теплоощущения человека.
Tes - Эффективная температура на солнце - температура, которую ощущает человек, с поправкой на солнечный нагрев. Характеристика знойности погоды. Зависит от высоты солнца над горизонтом, облачности и скорости ветра. Ночью, в пасмурную погоду, а также при ветре 12 м/с и более поправка равна нулю.
P - Атмосферное давление - приведенное к уровню моря атмосферное давление.
Po - Атмосферное давление - измеренное на уровне метеостанции атмосферное давление.
Tmin - Минимальная температура - минимум температуры воздуха на высоте 2 м над землей.
Tmax - Максимальная температура - максимум температуры воздуха на высоте 2 м над землей.
R - Количество осадков - Количество выпавших осадков за период времени, мм. При наведении курсора мыши на число - период времени, за который выпало указанное количество осадков.
R24 - Количество осадков - Количество выпавших осадков за 24 часа, мм.
S - Снежный покров - Высота снежного покрова, см. При наведении курсора мыши на число - состояние снежного покрова и степень покрытия местности в баллах.